TimeEDT,TemperatureF,Dew PointF,Humidity,Sea Level PressureIn,VisibilityMPH,Wind Direction,Wind SpeedMPH,Gust SpeedMPH,PrecipitationIn,Events,Conditions,WindDirDegrees,DateUTC
12:53 AM,62.1,53.1,72,30.22,10.0,Calm,Calm,-,N/A,,Clear,0,2013-08-24 04:53:00
1:53 AM,55.9,51.1,84,30.23,10.0,Calm,Calm,-,N/A,,Clear,0,2013-08-24 05:53:00
2:53 AM,57.9,53.1,84,30.23,10.0,Calm,Calm,-,N/A,,Clear,0,2013-08-24 06:53:00
3:53 AM,55.0,51.1,86,30.25,10.0,Calm,Calm,-,N/A,,Clear,0,2013-08-24 07:53:00
4:53 AM,51.1,48.9,92,30.26,4.0,Calm,Calm,-,N/A,,Clear,0,2013-08-24 08:53:00
5:53 AM,55.0,52.0,89,30.27,10.0,Calm,Calm,-,N/A,,Clear,0,2013-08-24 09:53:00
6:53 AM,54.0,51.1,90,30.30,10.0,Calm,Calm,-,N/A,,Clear,0,2013-08-24 10:53:00
7:04 AM,51.8,51.8,100,30.30,1.8,Calm,Calm,-,N/A,,Clear,0,2013-08-24 11:04:00
7:18 AM,53.6,51.8,94,30.30,10.0,Calm,Calm,-,N/A,,Clear,0,2013-08-24 11:18:00
7:53 AM,57.0,54.0,89,30.31,10.0,Calm,Calm,-,N/A,,Clear,0,2013-08-24 11:53:00
8:53 AM,64.9,57.9,78,30.32,10.0,Calm,Calm,-,N/A,,Clear,0,2013-08-24 12:53:00
9:53 AM,72.0,57.0,59,30.33,10.0,Calm,Calm,-,N/A,,Clear,0,2013-08-24 13:53:00
10:53 AM,77.0,55.0,47,30.32,10.0,Variable,3.5,-,N/A,,Clear,0,2013-08-24 14:53:00
11:53 AM,79.0,52.0,39,30.31,10.0,Variable,3.5,-,N/A,,Clear,0,2013-08-24 15:53:00
12:53 PM,81.0,51.1,35,30.30,10.0,SSE,6.9,-,N/A,,Scattered Clouds,160,2013-08-24 16:53:00
1:53 PM,82.9,52.0,34,30.29,10.0,South,8.1,-,N/A,,Scattered Clouds,190,2013-08-24 17:53:00
2:53 PM,82.9,48.9,31,30.28,10.0,South,8.1,-,N/A,,Partly Cloudy,170,2013-08-24 18:53:00
3:53 PM,80.1,52.0,38,30.28,10.0,Calm,Calm,-,N/A,,Clear,0,2013-08-24 19:53:00
4:53 PM,82.0,52.0,35,30.27,10.0,SW,4.6,-,N/A,,Mostly Cloudy,230,2013-08-24 20:53:00
5:53 PM,82.9,53.1,36,30.26,10.0,Calm,Calm,-,N/A,,Clear,0,2013-08-24 21:53:00
6:53 PM,81.0,52.0,36,30.26,10.0,South,3.5,-,N/A,,Clear,190,2013-08-24 22:53:00
7:53 PM,75.0,57.0,53,30.26,10.0,SSE,4.6,-,N/A,,Clear,160,2013-08-24 23:53:00
8:53 PM,71.1,57.9,63,30.28,10.0,SE,8.1,-,N/A,,Clear,130,2013-08-25 00:53:00
9:53 PM,69.1,57.9,68,30.28,10.0,SSE,4.6,-,N/A,,Clear,160,2013-08-25 01:53:00
10:53 PM,69.1,57.9,68,30.28,10.0,South,8.1,-,N/A,,Clear,180,2013-08-25 02:53:00
11:53 PM,66.9,55.9,68,30.28,10.0,South,6.9,-,N/A,,Clear,170,2013-08-25 03:53:00